(119141) = 1998 YR17 = 2001 PX25

Discovered at Haleakala on 2001-08-11 by NEAT.

Orbit

Orbit type: Main Belt

Note: WebGL enabled browser required.

epoch2023-09-13.0
epoch JD2460200.5
perihelion date2020-10-25.54167
perihelion JD2459148.04167
argument of perihelion (°)296.07439
ascending node (°)113.77413
inclination (°)5.03936
eccentricity0.1471602
perihelion distance (AU)2.0457543
Tisserand w.r.t. Jupiter3.5
ΔV w.r.t. Earth (km/sec)9.0
semimajor axis (AU)2.3987558
mean anomaly (°)279.20919
mean daily motion (°/day)0.26529240
aphelion distance (AU)2.752
period (years)3.72
P-vector [x]0.64163325
P-vector [y]0.73137088
P-vector [z]0.23109177
Q-vector [x]-0.76278755
Q-vector [y]0.57687279
Q-vector [z]0.29218647
absolute magnitude16.44
phase slope0.15
uncertainty0
referenceMPEC 2024-A34
observations used816
oppositions16
arc length (days)9071
first opposition used1998
last opposition used2023
residual rms (arc-secs)0.72
perturbers coarse indicatorM-v
perturbers precise indicator003Ek
first observation date used1998-12-23.0
last observation date used2023-10-24.0
computer nameMPCLINUX
JD of orbit computation2456819.466977
perihelion JD uncertainty (days)1.1162E-04
argument of perihelion uncertainty (°)7.0437E-05
ascending node uncertainty (°)6.2344E-05
inclination uncertainty (°)6.5728E-06
eccentricity uncertainty 5.4052E-08
perihelion distance uncertainty (AU)1.2484E-07
Minimum Orbit Intersection Distances (in AU)
for orbit epoch: 2460200.5, reference: E2024-A34
Mercury1.72961
Venus1.32459
Earth1.06127
Mars0.5469
Jupiter2.60308
Saturn6.86087
Uranus15.8661
Neptune27.7341

Observations

839 total observations over interval: 1998 12 23.43209 – 2023 10 24.03546
These data are available for download (format description).

Date (UT) J2000 RA J2000 Dec Magn Location Ref
1998 12 23.43209 08 16 23.98 +18 57 05.8 19.3 V 691 – Steward Observatory, Kitt Peak-Spacewatch MPS 3476
1998 12 23.45402 08 16 23.00 +18 57 10.4 19.4 V 691 – Steward Observatory, Kitt Peak-Spacewatch MPS 3476
1998 12 24.38879 08 15 46.05 +19 01 42.5 19.2 V 691 – Steward Observatory, Kitt Peak-Spacewatch MPS 3476
1998 12 24.41082 08 15 45.09 +19 01 48.9 19.2 V 691 – Steward Observatory, Kitt Peak-Spacewatch MPS 3476
1998 12 24.43302 08 15 44.13 +19 01 55.3 19.2 V 691 – Steward Observatory, Kitt Peak-Spacewatch MPS 3476
2001 08 01.43627 23 19 57.51 -09 44 31.1 19.8   644 – Palomar Mountain/NEAT MPS 34541
2001 08 01.44581 23 19 57.37 -09 44 34.6 19.9   644 – Palomar Mountain/NEAT MPS 34541
2001 08 01.44701 23 19 57.35 -09 44 34.2 19.9   644 – Palomar Mountain/NEAT MPS 34541
2001 08 01.45646 23 19 57.22 -09 44 38.2 20.1   644 – Palomar Mountain/NEAT MPS 34541
2001 08 01.45766 23 19 57.21 -09 44 37.7 19.9   644 – Palomar Mountain/NEAT MPS 34541
2001 08 01.46633 23 19 57.08 -09 44 41.2 19.9   644 – Palomar Mountain/NEAT MPS 34541
2001 08 11.50757 23 16 33.19 -10 45 32.6 20.9   608 – Haleakala-AMOS MPS 32948
2001 08 11.51802 23 16 32.89 -10 45 37.1 21.1   608 – Haleakala-AMOS MPS 32948
2001 08 11.52827 23 16 32.56 -10 45 40.8 21.1   608 – Haleakala-AMOS MPS 32948
2001 08 14.44557 23 15 02.69 -11 06 07.3 20.4   608 – Haleakala-AMOS MPS 32948
2001 08 14.45675 23 15 02.31 -11 06 11.8 20.0   608 – Haleakala-AMOS MPS 32948
2001 08 14.46780 23 15 01.99 -11 06 18.3 20.7   608 – Haleakala-AMOS MPS 32948
2001 08 25.24302 23 07 47.16 -12 28 51.7 19.4   644 – Palomar Mountain/NEAT MPS 33447
2001 08 25.26312 23 07 46.08 -12 29 01.5 19.5   704 – Lincoln Laboratory ETS, New Mexico MPS 33447
2001 08 25.26446 23 07 46.12 -12 29 01.5 19.1   644 – Palomar Mountain/NEAT MPS 33447
2001 08 25.27871 23 07 45.27 -12 29 08.7 19.2   704 – Lincoln Laboratory ETS, New Mexico MPS 33447
2001 08 25.28600 23 07 45.08 -12 29 11.9 19.0   644 – Palomar Mountain/NEAT MPS 33447
2001 08 25.29389 23 07 44.53 -12 29 14.7 18.9   704 – Lincoln Laboratory ETS, New Mexico MPS 33447
2001 08 25.30946 23 07 43.72 -12 29 22.9 19.0   704 – Lincoln Laboratory ETS, New Mexico MPS 33447
2001 08 25.32168 23 07 43.23 -12 29 28.3 18.6 R 699 – Lowell Observatory-LONEOS MPS 33447
2001 08 25.34118 23 07 42.32 -12 29 38.5   699 – Lowell Observatory-LONEOS MPS 33447
2001 08 25.36067 23 07 41.31 -12 29 47.4   699 – Lowell Observatory-LONEOS MPS 33447
2001 08 25.38017 23 07 40.37 -12 29 56.5   699 – Lowell Observatory-LONEOS MPS 33447
2001 09 12.26412 22 52 20.94 -14 44 52.3 18.7   704 – Lincoln Laboratory ETS, New Mexico MPS 34541
2001 09 12.27848 22 52 20.21 -14 44 57.9 18.7   704 – Lincoln Laboratory ETS, New Mexico MPS 34541
2001 09 12.29370 22 52 19.38 -14 45 03.7 18.9   704 – Lincoln Laboratory ETS, New Mexico MPS 34541
2001 09 12.30854 22 52 18.50 -14 45 09.0 18.7   704 – Lincoln Laboratory ETS, New Mexico MPS 34541
2001 09 12.32374 22 52 17.68 -14 45 15.2 18.6   704 – Lincoln Laboratory ETS, New Mexico MPS 34541
2001 09 19.18649 22 46 34.99 -15 26 33.6 18.7   704 – Lincoln Laboratory ETS, New Mexico MPS 35893
2001 09 19.20129 22 46 34.21 -15 26 38.0 19.2   704 – Lincoln Laboratory ETS, New Mexico MPS 35893
2001 09 19.21616 22 46 33.55 -15 26 42.9 19.5   704 – Lincoln Laboratory ETS, New Mexico MPS 35893
2001 09 19.23069 22 46 32.82 -15 26 48.1 19.3   704 – Lincoln Laboratory ETS, New Mexico MPS 35893
2001 09 19.24459 22 46 32.16 -15 26 51.6 19.2   704 – Lincoln Laboratory ETS, New Mexico MPS 35893
2001 09 19.24986 22 46 31.75 -15 26 52.8 18.8   704 – Lincoln Laboratory ETS, New Mexico MPS 35893
2001 09 19.26429 22 46 30.97 -15 26 59.1 19.5   704 – Lincoln Laboratory ETS, New Mexico MPS 35893
2001 09 19.27987 22 46 30.31 -15 27 04.0 19.2   704 – Lincoln Laboratory ETS, New Mexico MPS 35893
2001 09 21.19580 22 45 01.88 -15 36 54.8 19.5   704 – Lincoln Laboratory ETS, New Mexico MPS 35893
2001 09 21.21166 22 45 01.11 -15 36 59.5 19.3   704 – Lincoln Laboratory ETS, New Mexico MPS 35893
2001 09 21.22595 22 45 00.50 -15 37 04.0 19.1   704 – Lincoln Laboratory ETS, New Mexico MPS 35893
2001 09 21.24012 22 44 59.86 -15 37 08.0 19.2   704 – Lincoln Laboratory ETS, New Mexico MPS 35893
2003 01 27.50274 11 00 49.91 +11 10 56.0 21.1   608 – Haleakala-AMOS MPS 81426
2003 01 27.51354 11 00 49.54 +11 11 00.0 20.3   608 – Haleakala-AMOS MPS 81426
2003 01 27.52441 11 00 49.17 +11 11 03.9 20.8   608 – Haleakala-AMOS MPS 81426
2003 02 01.38973 10 58 08.37 +11 43 01.6 18.9 C 704 – Lincoln Laboratory ETS, New Mexico MPS 294140
2003 02 01.40506 10 58 07.79 +11 43 09.4 19.4 C 704 – Lincoln Laboratory ETS, New Mexico MPS 294140
2003 02 01.42036 10 58 07.21 +11 43 14.8 18.9 C 704 – Lincoln Laboratory ETS, New Mexico MPS 294140
2003 02 01.45088 10 58 05.97 +11 43 27.8 19.5 C 704 – Lincoln Laboratory ETS, New Mexico MPS 294140
2003 02 08.41770 10 53 13.57 +12 33 56.7 20.6   608 – Haleakala-AMOS MPS 81426
2003 02 08.42794 10 53 13.10 +12 34 01.6 20.9   608 – Haleakala-AMOS MPS 81426
2003 02 08.43918 10 53 12.56 +12 34 06.4 20.8   608 – Haleakala-AMOS MPS 81426
2003 03 06.16626 10 29 45.98 +15 41 59.9 19.0 R 699 – Lowell Observatory-LONEOS MPS 73894
2003 03 06.18124 10 29 45.09 +15 42 06.4   699 – Lowell Observatory-LONEOS MPS 73894
2003 03 06.19626 10 29 44.26 +15 42 12.0   699 – Lowell Observatory-LONEOS MPS 73894
2003 03 06.21127 10 29 43.43 +15 42 17.3   699 – Lowell Observatory-LONEOS MPS 73894
2003 03 07.18078 10 28 50.86 +15 48 06.6 19.2 R 699 – Lowell Observatory-LONEOS MPS 73894
2003 03 07.19679 10 28 49.87 +15 48 13.4   699 – Lowell Observatory-LONEOS MPS 73894
2003 03 07.21277 10 28 49.05 +15 48 18.4   699 – Lowell Observatory-LONEOS MPS 73894
2003 03 07.22878 10 28 48.19 +15 48 24.7   699 – Lowell Observatory-LONEOS MPS 73894
2003 03 07.46801 10 28 34.87 +15 49 50.3 20.4   644 – Palomar Mountain/NEAT MPS 81426
2003 03 07.47391 10 28 34.58 +15 49 51.6 20.1   644 – Palomar Mountain/NEAT MPS 81426
2003 03 07.47853 10 28 34.28 +15 49 53.4 19.9   644 – Palomar Mountain/NEAT MPS 81426
2003 03 07.48436 10 28 34.05 +15 49 55.3 19.9   644 – Palomar Mountain/NEAT MPS 81426
2003 03 07.48901 10 28 33.76 +15 49 57.6 19.7   644 – Palomar Mountain/NEAT MPS 81426
2003 03 07.49493 10 28 33.43 +15 49 59.5 19.9   644 – Palomar Mountain/NEAT MPS 81426
2005 10 01.37227 02 37 58.69 +05 52 11.9 18.5 V 703 – Catalina Sky Survey MPS 143499
2005 10 01.38169 02 37 58.40 +05 52 09.6 18.9 V 703 – Catalina Sky Survey MPS 143499
2005 10 01.39110 02 37 58.18 +05 52 07.2 18.6 V 703 – Catalina Sky Survey MPS 143499
2005 10 01.40049 02 37 57.90 +05 52 03.6 18.8 V 703 – Catalina Sky Survey MPS 143499
2005 10 07.31484 02 35 02.76 +05 22 58.8 18.8 V 703 – Catalina Sky Survey MPS 143499
2005 10 07.31659 02 35 02.69 +05 22 57.4 18.5 R 699 – Lowell Observatory-LONEOS MPS 143499
2005 10 07.32308 02 35 02.47 +05 22 56.3 18.9 V 703 – Catalina Sky Survey MPS 143499
2005 10 07.33146 02 35 02.14 +05 22 53.6 18.6 V 703 – Catalina Sky Survey MPS 143499
2005 10 07.33985 02 35 01.75 +05 22 51.0 18.5 V 703 – Catalina Sky Survey MPS 143499
2005 10 07.34573 02 35 01.57 +05 22 48.5   699 – Lowell Observatory-LONEOS MPS 143499
2005 10 07.40609 02 34 59.32 +05 22 30.2   699 – Lowell Observatory-LONEOS MPS 143499
2005 10 07.43536 02 34 58.26 +05 22 21.5   699 – Lowell Observatory-LONEOS MPS 143499
2005 10 21.37419 02 24 31.94 +04 12 00.8 18.3 R 644 – Palomar Mountain/NEAT MPS 145850
2005 10 21.39312 02 24 30.88 +04 11 55.3 18.3 R 644 – Palomar Mountain/NEAT MPS 145850
2005 10 21.41030 02 24 29.94 +04 11 50.2 18.3 R 644 – Palomar Mountain/NEAT MPS 145850
2005 10 22.39002 02 23 38.07 +04 07 12.2 18.1 V 703 – Catalina Sky Survey MPS 145850
2005 10 22.39675 02 23 37.68 +04 07 10.7 18.3 V 703 – Catalina Sky Survey MPS 145850
2005 10 22.40346 02 23 37.28 +04 07 08.1 18.2 V 703 – Catalina Sky Survey MPS 145850
2005 10 22.41016 02 23 36.92 +04 07 06.9 18.4 V 703 – Catalina Sky Survey MPS 145850
2005 10 28.29439 02 18 15.12 +03 41 20.9 18.5 V 703 – Catalina Sky Survey MPS 145850
2005 10 28.29821 02 18 14.94 +03 41 20.2 18.5 V 703 – Catalina Sky Survey MPS 145850
2005 10 28.30204 02 18 14.72 +03 41 19.0 18.4 V 703 – Catalina Sky Survey MPS 145850
